Howell, MI

7:06 AM EST on February 25, 2017 (GMT -0500)
Livingston County

Weather History for KOZW - January, 2014

Change the Weather History Date:

Thursday, January 2, 2014

  Actual Average Record
Temperature  
Mean Temperature 6 °F -  
Max Temperature 13 °F 32 °F 57 °F (2000)
Min Temperature 0 °F 19 °F 0 °F (2014)
Degree Days  
Heating Degree Days 58    
Moisture  
Dew Point 5 °F    
Average Humidity 80    
Maximum Humidity 89    
Minimum Humidity 66    
Precipitation  
Precipitation 0.00 in - - ()
Sea Level Pressure  
Sea Level Pressure 30.14 in    
Wind  
Wind Speed 10 mph (NNE)    
Max Wind Speed 15 mph    
Max Gust Speed 25 mph    
Visibility 4 miles    
Events Snow    
Averages and records for this station are not official NWS values.
T = Trace of Precipitation, MM = Missing Value Source: NWS Daily Summary

Daily Weather History Graph

Daily Weather History Graph

Search for Another Location

Airport or City:

Trip Planner

Search our weather history database for the weather conditions in past years. The results will help you decide how hot, cold, wet, or windy it might be!

Date:

Astronomy

Jan. 02, 2014 Rise Set
Actual Time 8:06 AM EST 5:14 PM EST
Civil Twilight 7:34 AM EST 5:46 PM EST
Nautical Twilight 6:58 AM EST 6:21 PM EST
Astronomical Twilight 6:24 AM EST 6:55 PM EST
Moon 8:44 AM EST (1/2) 7:12 PM EST (1/2)
Length of Visible Light 10h 11m
Length of Day
9h 08m
New Moon, 2% of the Moon is Illuminated
Jan 2
New Moon
Jan 7
First Quarter
Jan 15
Full
Jan 24
Last Quarter
Jan 30
New

Hourly Weather History & Observations

Time (EST) Temp. Windchill Dew Point Humidity Pressure Visibility Wind Dir Wind Speed Gust Speed Precip Events Conditions
12:15 AM 12.9 °F 1.6 °F 10.2 °F 89% 30.19 in 3.0 mi NE 8.1 mph - N/A Snow Light Snow
12:35 AM 13.1 °F 0.1 °F 10.4 °F 89% 30.18 in 4.0 mi NNE 10.4 mph 17.3 mph N/A Snow Light Snow
12:55 AM 13.1 °F 1.8 °F 10.0 °F 88% 30.18 in 4.0 mi NNE 8.1 mph - N/A Snow Light Snow
1:15 AM 12.7 °F 0.4 °F 9.5 °F 87% 30.17 in 3.0 mi NE 9.2 mph 16.1 mph N/A Snow Light Snow
1:35 AM 12.6 °F 0.2 °F 9.3 °F 87% 30.17 in 3.0 mi NNE 9.2 mph - N/A Snow Light Snow
1:55 AM 12.4 °F 0.9 °F 9.1 °F 87% 30.16 in 4.0 mi NE 8.1 mph - N/A Snow Light Snow
2:15 AM 12.2 °F -0.2 °F 8.6 °F 85% 30.16 in 3.0 mi NE 9.2 mph 17.3 mph N/A Snow Light Snow
2:35 AM 12.2 °F -1.0 °F 8.6 °F 85% 30.16 in 4.0 mi NE 10.4 mph 17.3 mph N/A Snow Light Snow
2:55 AM 12.2 °F -1.0 °F 8.6 °F 85% 30.16 in 3.0 mi NE 10.4 mph 17.3 mph N/A Snow Light Snow
3:15 AM 12.0 °F -2.0 °F 8.4 °F 85% 30.15 in 3.0 mi NE 11.5 mph 18.4 mph N/A Snow Light Snow
3:35 AM 12.0 °F -2.0 °F 8.2 °F 85% 30.14 in 5.0 mi NE 11.5 mph 16.1 mph N/A Snow Light Snow
3:55 AM 11.8 °F -2.3 °F 7.7 °F 83% 30.14 in 7.0 mi NE 11.5 mph 18.4 mph N/A   Overcast
4:15 AM 11.7 °F -1.7 °F 7.5 °F 83% 30.14 in 4.0 mi NE 10.4 mph - N/A Snow Light Snow
4:35 AM 11.3 °F -3.6 °F 7.5 °F 85% 30.13 in 3.0 mi NE 12.7 mph 19.6 mph N/A Snow Light Snow
4:55 AM 11.5 °F -3.4 °F 7.3 °F 83% 30.12 in 5.0 mi NE 12.7 mph 19.6 mph N/A Snow Light Snow
5:15 AM 11.3 °F -1.3 °F 7.7 °F 85% 30.12 in 3.0 mi NE 9.2 mph 16.1 mph N/A Snow Light Snow
5:35 AM 11.3 °F -2.2 °F 7.5 °F 85% 30.12 in 4.0 mi NE 10.4 mph - N/A Snow Light Snow
5:55 AM 11.3 °F -1.3 °F 7.5 °F 85% 30.12 in 3.0 mi NE 9.2 mph 16.1 mph N/A Snow Light Snow
6:15 AM 11.3 °F -1.3 °F 7.7 °F 85% 30.10 in 3.0 mi NE 9.2 mph - N/A Snow Light Snow
6:35 AM 11.3 °F -1.3 °F 7.5 °F 85% 30.10 in 4.0 mi NE 9.2 mph 17.3 mph N/A Snow Light Snow
6:55 AM 11.3 °F -1.3 °F 7.5 °F 85% 30.11 in 3.0 mi NNE 9.2 mph 18.4 mph N/A Snow Light Snow
7:16 AM 11.1 °F -1.6 °F 7.5 °F 85% 30.09 in 3.0 mi NNE 9.2 mph - N/A Snow Light Snow
7:35 AM 10.9 °F -0.8 °F 7.5 °F 86% 30.09 in 2.5 mi NNE 8.1 mph - N/A Snow Light Snow
7:55 AM 10.8 °F -1.1 °F 7.5 °F 87% 30.09 in 2.0 mi NNE 8.1 mph - N/A Snow Light Snow
8:15 AM 10.8 °F -1.1 °F 7.5 °F 87% 30.10 in 2.0 mi NNE 8.1 mph - N/A Snow Light Snow
8:35 AM 10.8 °F 0.0 °F 7.7 °F 87% 30.10 in 1.2 mi NE 6.9 mph - N/A Snow Light Snow
8:55 AM 10.6 °F -3.1 °F 7.5 °F 87% 30.10 in 1.2 mi NE 10.4 mph - N/A Snow Light Snow
9:15 AM 10.4 °F -3.3 °F 6.8 °F 85% 30.10 in 1.8 mi NE 10.4 mph 18.4 mph N/A Snow Light Snow
9:35 AM 10.8 °F -1.1 °F 7.3 °F 86% 30.11 in 1.2 mi NNE 8.1 mph 17.3 mph N/A Snow Light Snow
9:55 AM 10.9 °F -3.4 °F 7.0 °F 84% 30.10 in 1.8 mi NE 11.5 mph 21.9 mph N/A Snow Light Snow
10:15 AM 10.9 °F -4.1 °F 6.8 °F 83% 30.11 in 1.8 mi NE 12.7 mph 18.4 mph N/A Snow Light Snow
10:36 AM 11.3 °F -1.3 °F 7.3 °F 84% 30.11 in 2.0 mi NNE 9.2 mph - N/A Snow Light Snow
10:55 AM 11.8 °F -0.7 °F 7.5 °F 83% 30.11 in 2.0 mi NNE 9.2 mph - N/A Snow Light Snow
11:15 AM 12.2 °F 0.7 °F 7.7 °F 82% 30.10 in 1.8 mi NNE 8.1 mph 17.3 mph N/A Snow Light Snow
11:35 AM 12.2 °F -1.8 °F 8.1 °F 83% 30.10 in 1.2 mi NNE 11.5 mph 16.1 mph N/A Snow Light Snow
11:55 AM 12.6 °F 0.2 °F 8.1 °F 82% 30.09 in 1.8 mi NNE 9.2 mph - N/A Snow Light Snow
12:15 PM 12.9 °F 0.7 °F 7.7 °F 80% 30.09 in 2.0 mi NNE 9.2 mph 17.3 mph N/A Snow Light Snow
12:35 PM 13.1 °F 0.9 °F 7.7 °F 79% 30.09 in 1.5 mi North 9.2 mph 16.1 mph N/A Snow Light Snow
12:55 PM 12.9 °F 0.7 °F 7.9 °F 80% 30.08 in 1.8 mi North 9.2 mph 17.3 mph N/A Snow Light Snow
1:15 PM 12.7 °F -1.1 °F 7.3 °F 79% 30.07 in 2.0 mi North 11.5 mph 21.9 mph N/A Snow Light Snow
1:35 PM 12.7 °F 0.4 °F 7.5 °F 80% 30.07 in 1.8 mi North 9.2 mph 21.9 mph N/A Snow Light Snow
1:55 PM 12.9 °F -1.6 °F 7.5 °F 79% 30.07 in 2.5 mi North 12.7 mph 19.6 mph N/A Snow Light Snow
2:15 PM 12.6 °F -3.3 °F 7.0 °F 78% 30.07 in 1.5 mi North 15.0 mph 20.7 mph N/A Snow Light Snow
2:35 PM 11.7 °F -3.2 °F 6.4 °F 80% 30.07 in 1.8 mi North 12.7 mph 18.4 mph N/A Snow Light Snow
2:55 PM 11.3 °F -1.3 °F 5.9 °F 79% 30.07 in 3.0 mi North 9.2 mph 19.6 mph N/A   Haze
3:15 PM 10.9 °F -5.4 °F 5.0 °F 77% 30.08 in 7.0 mi North 15.0 mph 21.9 mph N/A   Overcast
3:35 PM 10.4 °F -5.4 °F 4.8 °F 78% 30.08 in 5.0 mi North 13.8 mph 20.7 mph N/A   Haze
3:55 PM 10.0 °F -5.2 °F 4.3 °F 78% 30.09 in 4.0 mi North 12.7 mph 18.4 mph N/A   Haze
4:15 PM 9.5 °F -5.2 °F 4.1 °F 79% 30.10 in 2.0 mi North 11.5 mph 18.4 mph N/A Snow Light Snow
4:35 PM 9.3 °F -7.4 °F 4.3 °F 80% 30.11 in 1.5 mi North 15.0 mph 25.3 mph N/A Snow Light Snow
4:55 PM 9.1 °F -6.4 °F 4.3 °F 81% 30.11 in 1.5 mi North 12.7 mph 21.9 mph N/A Snow Light Snow
5:15 PM 8.6 °F -6.3 °F 3.9 °F 81% 30.13 in 1.5 mi North 11.5 mph 25.3 mph N/A Snow Light Snow
5:35 PM 8.2 °F -7.5 °F 3.2 °F 80% 30.13 in 3.0 mi North 12.7 mph 20.7 mph N/A Snow Light Snow
5:55 PM 8.1 °F -6.2 °F 3.2 °F 81% 30.14 in 3.0 mi North 10.4 mph 23.0 mph N/A Snow Light Snow
6:15 PM 7.7 °F -5.8 °F 2.7 °F 80% 30.16 in 4.0 mi North 9.2 mph 18.4 mph N/A   Haze
6:35 PM 7.5 °F -6.9 °F 2.3 °F 79% 30.17 in 4.0 mi North 10.4 mph 19.6 mph N/A   Haze
6:55 PM 7.3 °F -8.6 °F 1.9 °F 79% 30.18 in 5.0 mi NNW 12.7 mph 21.9 mph N/A   Haze
7:15 PM 7.2 °F -8.9 °F 1.4 °F 77% 30.19 in 7.0 mi NNW 12.7 mph 17.3 mph N/A   Overcast
7:35 PM 6.8 °F -10.0 °F -0.2 °F 73% 30.20 in 10.0 mi NNW 13.8 mph 21.9 mph N/A   Overcast
7:55 PM 6.4 °F -9.8 °F -1.3 °F 71% 30.21 in 10.0 mi NNW 12.7 mph 20.7 mph N/A   Overcast
8:15 PM 5.9 °F -8.0 °F -2.0 °F 70% 30.21 in 10.0 mi North 9.2 mph 16.1 mph N/A   Overcast
8:35 PM 5.5 °F -10.2 °F -2.9 °F 68% 30.22 in 10.0 mi North 11.5 mph 16.1 mph N/A   Overcast
8:55 PM 5.0 °F -9.1 °F -4.2 °F 66% 30.23 in 10.0 mi North 9.2 mph - N/A   Mostly Cloudy
9:15 PM 4.8 °F -10.2 °F -4.4 °F 66% 30.23 in 10.0 mi NNW 10.4 mph 16.1 mph N/A   Overcast
9:35 PM 4.1 °F -9.2 °F -4.9 °F 66% 30.23 in 10.0 mi NNW 8.1 mph - N/A   Mostly Cloudy
9:55 PM 3.6 °F -8.7 °F -5.3 °F 67% 30.23 in 10.0 mi North 6.9 mph - N/A   Scattered Clouds
10:15 PM 2.7 °F -10.9 °F -5.8 °F 68% 30.23 in 10.0 mi NNW 8.1 mph - N/A   Clear
10:35 PM 2.3 °F -10.2 °F -6.0 °F 68% 30.23 in 10.0 mi North 6.9 mph - N/A   Clear
10:55 PM 1.8 °F -7.8 °F -6.2 °F 69% 30.24 in 10.0 mi NNW 4.6 mph - N/A   Clear
11:15 PM 1.4 °F -12.5 °F -6.0 °F 71% 30.24 in 10.0 mi NNW 8.1 mph - N/A   Clear
11:35 PM 0.9 °F -11.9 °F -6.2 °F 72% 30.24 in 10.0 mi NNW 6.9 mph - N/A   Clear
11:55 PM 0.5 °F -12.3 °F -6.3 °F 73% 30.25 in 10.0 mi NW 6.9 mph - N/A   Clear